BEIDOU-3 G1 (43683 NORAD) Tracking and Keplerian Element Data

This shows tracking and keplerian element data for the satellite.

Feedback or suggestion? Click here.




ElementValue
Catalog43683
NameBEIDOU-3 G1
Epoch Orbit184
Epoch Day109.93174351
Epoch Year2019
RAAN270.6415
Inclination2.7128
Eccentricity0.0001153
Argument of Perigee98.5196
Mean Anonmoly318.5193
Mean Motion1.00269372
Decay Rate-2.67E-06
L11 43683U 18085A 19109.93174351 -.00000267 00000-0 00000-0 0 9995
L22 43683 2.7128 270.6415 0001153 98.5196 318.5193 1.00269372 1842

Live tracking and technical data element details for BEIDOU-3 G1 (NORAD 43683). BEIDOU-3 G1 can be tracked NOW for your location showing map with azimuth and elevation plus other details from your city location.

Track the satellite on the map from your city or location and see movement details for azimuth, elevation, latitude, longitude, range, height, and movement on the map or in text.







IsCatalogInMostPopularTable: catalog: 43683, numindb: 84
Update: records affected: 1



GetName: 43683 BEIDOU-3 G1

Hit Count: updated at: Sat, 20 Apr 2019 20:36:01 GMT